This demonstration page uses our WeatherBlox Daily Observations layout. Learn more.

Left ArrowRight Arrow

Hourly Observations for May 24, 2022

Temp ( °F °C ) Dew Point ( °F °C ) Humidity (%) Winds ( mph kmh ) Pressure ( in mb ) Visibility ( mi km ) Precip ( " mm )
12:51 am 00:51 Clear 67 19.4 23 -5 19 19 NW 9 15 29.65 1004 10 16 0.00 0.00
1:51 am 01:51 Clear 66 18.9 25 -3.9 21 21 NNW 7 11 29.65 1004 10 16 0.00 0.00
2:51 am 02:51 Clear 66 18.9 26 -3.3 22 22 N 8 13 29.65 1004 10 16 0.00 0.00
3:51 am 03:51 Clear 65 18.3 28 -2.2 25 25 NW 12 19 29.66 1004 10 16 0.00 0.00
4:51 am 04:51 Clear 66 18.9 30 -1.1 26 26 NNW 9 15 29.67 1005 10 16 0.00 0.00
5:51 am 05:51 Sunny 68 20 32 0 26 26 NW 8 13 29.70 1006 10 16 0.00 0.00
6:51 am 06:51 Sunny 72 22.2 33 0.6 24 24 NNW 10 17 29.71 1006 10 16 0.00 0.00
7:51 am 07:51 Sunny 76 24.4 33 0.6 21 21 WNW 17 28 29.70 1006 10 16 0.00 0.00
8:51 am 08:51 Sunny 78 25.6 32 0 19 19 WNW 20 31 29.70 1006 10 16 0.00 0.00
9:51 am 09:51 Sunny 82 27.8 20 -6.7 10 10 W 18 30 29.69 1006 10 16 0.00 0.00
10:51 am 10:51 Sunny 84 28.9 13 -10.6 7 7 WNW 21 33 29.68 1005 10 16 0.00 0.00
11:51 am 11:51 Sunny 85 29.4 11 -11.7 6 6 WNW 23 37 29.68 1005 10 16 0.00 0.00
12:51 pm 12:51 Sunny 86 30 11 -11.7 6 6 W 24 39 29.65 1004 10 16 0.00 0.00
1:51 pm 13:51 Sunny 89 31.7 10 -12.2 5 5 NW 23 37 29.63 1004 10 16 0.00 0.00
2:51 pm 14:51 Sunny 88 31.1 10 -12.2 5 5 W 13 20 29.62 1003 10 16 0.00 0.00
3:51 pm 15:51 Sunny 89 31.7 9 -12.8 5 5 WNW 15 24 29.61 1003 10 16 0.00 0.00
4:51 pm 16:51 Sunny 89 31.7 10 -12.2 5 5 W 22 35 29.60 1003 10 16 0.00 0.00
5:51 pm 17:51 Sunny 87 30.6 10 -12.2 5 5 W 17 28 29.60 1003 10 16 0.00 0.00
6:51 pm 18:51 Sunny 85 29.4 10 -12.2 6 6 WNW 14 22 29.61 1003 10 16 0.00 0.00
7:51 pm 19:51 Clear 80 26.7 14 -10 8 8 WNW 10 17 29.65 1004 10 16 0.00 0.00
8:51 pm 20:51 Clear 75 23.9 14 -10 10 10 NNW 10 17 29.68 1005 10 16 0.00 0.00
9:51 pm 21:51 Clear 73 22.8 13 -10.6 10 10 NNW 9 15 29.70 1006 10 16 0.00 0.00
10:51 pm 22:51 Clear 67 19.4 14 -10 13 13 NW 5 7 29.72 1007 10 16 0.00 0.00
11:51 pm 23:51 Clear 66 18.9 14 -10 13 13 NNW 8 13 29.72 1007 10 16 0.00 0.00

Powered by AerisWeather